NOAA 16 DEB, 41220

Orbit data source: Space-Track

NOAA 16 DEB, 41220 is space debris in SSO originally from a launch on Thu, 21 Sep 2000 UTC launched from the Air Force Western Test Range (AFWTR). Debris objects in space refer to the collection of defunct objects orbiting the Earth. Examples of debris include non-operational satellites, rocket bodies, and fragments generated from explosions, collisions, or faulty payload assembly.

Loading next visibility...
Identifier
41220, 2000-055DZ
Orbit
SSO
Country
Flag of USUS
Related business
Manufacturer
Unknown
Mission
Spacecraft
Bus & Motor
Unknown
Mass
Unknown
Launch date (UTC)
2000-09-21 (25 years ago)
Launch vehicle
Unknown
Launch site
Air Force Western Test Range (AFWTR)
Object type
Payload
Rocket body
Debris
Shape & HBR
Unknown shape, 0.1 m
Radar Cross Section
Small (<0.1 m²)

Expand to show TLE details & history
Last TLE update: 22 hours ago

TLE from 22 hours ago
0 NOAA 16 DEB
1 41220U 00055DZ  26033.58008378  .00003088  00000-0  14097-2 0  9994
2 41220  98.6764  83.5191 0016217 208.6116 151.4173 14.22191081523055
Epoch: 2026-02-02T13:55Z
TLE epoch observation values (Epoch: 2026-02-02T13:55:19.238Z)
Latitude
-0.00006°
Longitude
101.91562°
Altitude
831.125 km
Speed
7.432 km/s
True Right ascension
05h 34m 04s
True Declination
0° 00' 00"
Sunlit
Object was in full shadow at epoch
Visualization orbit readout
Latitude
Unknown
Longitude
Unknown
Altitude
Unknown
Speed
Unknown
Apparent Right ascension
Unknown
Apparent Declination
Unknown
Sunlit
N/A
Visualization observer readout
Local Sidereal Time
13:43:42
Azimuth
Unknown
Elevation
Unknown
Doppler factor
Unknown
Orbital elements
Apogee altitude
826.772 km
Perigee altitude
803.441 km
Semi-major axis
7,193.243 km
Eccentricity
0.00162
Inclination
98.6764°
RAAN
83.5191°
Arg. of periapsis
208.6116°
True anomaly
151.50605°
Mean anomaly
151.4173°
Eccentric anomaly
151.46169°
Mean motion
3.55759 °/min
Orbital period
101.19 mins
BSTAR
0.0014097
Loading maneuver chart data...
Computing Atmospheric mass density...
Loading historical data...
Loading historical data...
Loading historical data...
Loading historical data...
Loading historical data...
Loading historical data...
Loading historical data...

Documentation

Showing up to 5 results
|